period_start,C,m1,H,J0,J1,J2,J3,J4,J5,JA,JB,JC,JD,JJ,JK,JN,#
2015-04-18 00:03:37,0.13,2.56,0.00,23.54,27.00,29.91,4.68,23.80,1015.64,2033.06,2505.55,2638.27,2862.40,349.50,346.33,14.79,0000 0000 0000 0000 000000
2015-04-18 00:08:38,0.14,2.56,0.00,23.45,27.00,29.95,4.69,23.67,1015.63,2033.02,2504.27,2637.20,2861.25,349.71,346.51,14.82,0000 0000 0000 0000 000000
2015-04-18 00:13:39,0.13,2.56,0.00,23.38,27.00,29.94,4.66,23.71,1015.61,2033.04,2503.27,2636.51,2860.45,349.43,346.39,14.85,0000 0000 0000 0000 000000
2015-04-18 00:18:41,0.08,2.57,0.00,23.36,27.00,29.89,4.83,23.68,1015.57,2033.03,2502.26,2635.83,2859.68,350.35,347.10,14.88,0000 0000 0000 0000 000000
2015-04-18 00:23:42,0.14,2.57,0.00,23.64,27.00,29.88,4.74,23.66,1015.61,2033.01,2501.04,2634.86,2858.67,350.02,346.58,14.91,0000 0000 0000 0000 000000
2015-04-18 00:28:43,0.28,2.58,0.00,23.84,27.00,29.87,4.77,23.76,1015.62,2033.04,2498.91,2633.21,2856.80,349.93,346.17,14.94,0000 0000 0000 0000 000000
2015-04-18 00:33:44,0.26,2.59,0.00,23.91,27.00,29.86,4.79,23.69,1015.63,2033.02,2496.69,2631.45,2854.97,350.41,346.78,14.97,0000 0000 0000 0000 000000
2015-04-18 00:38:46,0.23,2.59,0.00,23.84,27.01,29.86,4.77,23.79,1015.60,2033.00,2494.71,2629.79,2853.20,350.09,346.52,15.00,0000 0000 0000 0000 000000
2015-04-18 00:43:47,0.21,2.60,0.00,23.66,27.02,29.88,4.75,23.79,1015.56,2033.00,2492.95,2628.37,2851.63,349.69,346.45,15.03,0000 0000 0000 0000 000000
2015-04-18 00:48:48,0.25,2.61,0.00,23.56,27.02,29.92,4.75,23.74,1015.43,2033.00,2490.78,2626.82,2849.91,349.74,346.77,15.06,0000 0000 0000 0000 000000
2015-04-18 00:53:49,0.20,2.61,0.00,23.52,27.02,29.93,4.75,23.62,1015.31,2033.00,2488.77,2625.33,2848.32,350.07,346.67,15.09,0000 0000 0000 0000 000000
2015-04-18 00:58:51,0.17,2.62,0.00,23.47,27.02,29.94,4.71,23.75,1015.24,2033.00,2487.36,2624.07,2846.89,350.16,347.02,15.11,0000 0000 0000 0000 000000
2015-04-18 01:03:52,0.15,2.62,0.00,23.44,27.02,29.92,4.79,23.73,1015.21,2033.00,2485.98,2623.05,2845.65,350.16,346.86,15.14,0000 0000 0000 0000 000000
2015-04-18 01:08:53,0.11,2.63,0.00,23.69,27.02,29.90,4.61,23.74,1015.19,2033.00,2484.95,2622.19,2844.79,349.06,345.46,15.17,0000 0000 0000 0000 000000
2015-04-18 01:13:55,0.10,2.63,0.00,23.90,27.02,29.86,4.73,23.74,1015.20,2033.00,2483.94,2621.69,2843.95,349.90,346.06,15.20,0000 0000 0000 0000 000000
2015-04-18 01:18:56,0.18,2.63,0.00,23.92,27.02,29.85,4.79,23.73,1015.19,2033.00,2482.70,2620.61,2842.77,350.08,346.21,15.23,0000 0000 0000 0000 000000
2015-04-18 01:23:57,0.17,2.64,0.00,23.87,27.02,29.81,4.62,23.79,1015.20,2033.00,2481.26,2619.31,2841.38,349.78,346.02,15.26,0000 0000 0000 0000 000000
2015-04-18 01:28:59,0.13,2.64,0.00,23.71,27.02,29.84,4.66,23.83,1015.21,2033.00,2480.07,2618.43,2840.43,349.26,345.65,15.29,0000 0000 0000 0000 000000
2015-04-18 01:34:00,0.12,2.65,0.00,23.66,27.02,29.89,4.70,23.74,1015.19,2033.00,2478.92,2617.65,2839.52,349.86,346.25,15.32,0000 0000 0000 0000 000000
2015-04-18 01:39:02,0.11,2.65,0.00,23.61,27.02,29.93,4.67,23.75,1015.18,2033.00,2477.78,2616.94,2838.66,349.72,346.02,15.35,0000 0000 0000 0000 000000
2015-04-18 01:44:03,0.12,2.66,0.00,23.56,27.02,29.93,4.67,23.56,1015.18,2033.00,2476.73,2616.12,2837.85,350.09,346.59,15.38,0000 0000 0000 0000 000000
2015-04-18 01:49:04,0.13,2.66,0.00,23.53,27.02,29.93,4.77,23.62,1015.17,2033.00,2475.67,2615.38,2837.02,350.45,347.14,15.41,0000 0000 0000 0000 000000
2015-04-18 01:54:06,0.12,2.66,0.00,23.64,27.02,29.92,4.79,23.68,1015.15,2033.00,2474.63,2614.64,2836.12,350.38,346.82,15.44,0000 0000 0000 0000 000000
2015-04-18 01:59:07,0.15,2.67,0.00,23.93,27.02,29.87,4.75,23.76,1015.16,2033.00,2473.36,2613.60,2834.99,350.00,346.17,15.47,0000 0000 0000 0000 000000
2015-04-18 02:04:08,0.11,2.67,0.00,24.01,27.02,29.87,4.70,23.64,1015.16,2033.00,2472.21,2612.76,2834.02,349.65,345.67,15.50,0000 0000 0000 0000 000000
2015-04-18 02:09:10,0.17,2.68,0.00,23.88,27.02,29.83,4.62,23.64,1015.16,2033.00,2470.91,2611.70,2832.92,349.46,345.45,15.52,0000 0000 0000 0000 000000
2015-04-18 02:14:11,0.16,2.68,0.00,23.78,27.04,29.84,4.72,23.63,1015.16,2033.00,2469.55,2610.67,2831.81,350.02,346.49,15.55,0000 0000 0000 0000 000000
2015-04-18 02:19:12,0.10,2.68,0.00,23.74,27.04,29.90,4.77,23.70,1015.15,2033.00,2468.48,2609.89,2830.91,350.18,346.41,15.58,0000 0000 0000 0000 000000
2015-04-18 02:24:14,0.12,2.69,0.00,23.70,27.05,29.92,4.72,23.63,1015.16,2033.00,2467.42,2609.04,2829.99,349.81,346.29,15.61,0000 0000 0000 0000 000000
2015-04-18 02:29:15,0.21,2.69,0.00,23.67,27.05,29.93,4.81,23.60,1015.16,2033.00,2465.90,2607.88,2828.70,350.07,346.47,15.64,0000 0000 0000 0000 000000
2015-04-18 02:34:16,0.19,2.70,0.00,23.65,27.05,29.94,4.74,23.58,1015.15,2033.00,2464.40,2606.52,2827.20,350.19,346.87,15.67,0000 0000 0000 0000 000000
2015-04-18 02:39:17,0.14,2.70,0.00,23.64,27.04,29.94,4.75,23.62,1015.15,2033.00,2463.09,2605.53,2826.12,350.11,346.39,15.70,0000 0000 0000 0000 000000
2015-04-18 02:44:19,0.14,2.71,0.00,23.63,27.04,29.93,4.68,23.53,1015.15,2033.00,2461.82,2604.72,2825.12,349.45,345.84,15.73,0000 0000 0000 0000 000000
2015-04-18 02:49:20,0.21,2.71,0.00,23.62,27.03,29.93,4.76,23.54,1015.15,2033.00,2460.33,2603.49,2823.78,350.08,346.39,15.76,0000 0000 0000 0000 000000
2015-04-18 02:54:21,0.19,2.72,0.00,23.62,27.02,29.92,4.82,23.52,1015.15,2033.00,2458.65,2602.03,2822.13,350.23,346.81,15.79,0000 0000 0000 0000 000000
2015-04-18 02:59:22,0.15,2.73,0.00,23.62,27.02,29.91,4.74,23.53,1015.15,2033.00,2457.25,2600.99,2820.99,350.05,346.57,15.82,0000 0000 0000 0000 000000
2015-04-18 03:04:23,0.17,2.73,0.00,23.64,27.02,29.90,4.73,23.52,1015.15,2033.00,2455.82,2599.92,2819.87,349.93,346.37,15.85,0000 0000 0000 0000 000000
2015-04-18 03:09:25,0.26,2.74,0.00,23.65,27.02,29.90,4.80,23.53,1015.15,2033.00,2453.82,2598.53,2818.29,350.30,346.67,15.88,0000 0000 0000 0000 000000
2015-04-18 03:14:26,0.29,2.74,0.00,23.66,27.02,29.89,4.75,23.63,1015.15,2033.00,2451.40,2596.70,2816.45,349.99,346.47,15.91,0000 0000 0000 0000 000000
2015-04-18 03:19:27,0.16,2.75,0.00,23.67,27.02,29.89,4.67,23.52,1015.15,2033.00,2449.65,2595.46,2815.13,349.71,346.09,15.93,0000 0000 0000 0000 000000
2015-04-18 03:24:29,0.17,2.76,0.00,23.67,27.02,29.89,4.79,23.78,1015.15,2033.00,2448.24,2594.27,2813.80,350.24,346.55,15.96,0000 0000 0000 0000 000000
2015-04-18 03:29:30,0.18,2.76,0.00,23.67,27.02,29.88,4.77,23.58,1015.15,2033.00,2446.74,2593.08,2812.51,350.59,346.97,15.99,0000 0000 0000 0000 000000
2015-04-18 03:34:31,0.14,2.77,0.00,23.68,27.02,29.88,4.76,23.72,1015.16,2033.00,2445.48,2592.10,2811.45,349.75,346.28,16.02,0000 0000 0000 0000 000000
2015-04-18 03:39:33,0.14,2.77,0.00,23.70,27.02,29.88,4.71,23.85,1015.15,2033.00,2444.24,2591.22,2810.41,349.82,346.20,16.05,0000 0000 0000 0000 000000
2015-04-18 03:44:34,0.20,2.78,0.00,23.71,27.02,29.88,4.65,23.63,1015.15,2033.00,2442.76,2589.94,2809.04,349.52,345.89,16.08,0000 0000 0000 0000 000000
2015-04-18 03:49:35,0.13,2.78,0.00,23.72,27.02,29.87,4.77,23.65,1015.15,2033.00,2441.46,2588.92,2807.90,349.86,346.35,16.11,0000 0000 0000 0000 000000
2015-04-18 03:54:36,0.15,2.79,0.00,23.75,27.02,29.86,4.74,23.71,1015.15,2033.00,2440.14,2587.96,2806.82,350.21,346.72,16.14,0000 0000 0000 0000 000000
2015-04-18 03:59:37,0.15,2.79,0.00,23.77,27.02,29.87,4.72,23.61,1015.15,2032.99,2438.84,2587.05,2805.80,349.88,346.31,16.17,0000 0000 0000 0000 000000
2015-04-18 04:04:38,0.14,2.79,0.00,23.79,27.02,29.85,4.75,23.61,1015.15,2032.99,2437.68,2586.10,2804.83,350.05,346.26,16.20,0000 0000 0000 0000 000000
2015-04-18 04:09:40,0.17,2.80,0.00,23.80,27.02,29.85,4.76,23.57,1015.15,2032.99,2436.35,2584.98,2803.61,349.65,345.90,16.23,0000 0000 0000 0000 000000
2015-04-18 04:14:41,0.18,2.80,0.00,23.82,27.02,29.87,4.76,23.69,1015.15,2032.99,2434.89,2583.82,2802.32,349.91,346.16,16.26,0000 0000 0000 0000 000000
2015-04-18 04:19:42,0.16,2.81,0.00,23.82,27.02,29.85,4.79,23.73,1015.15,2032.99,2433.60,2582.80,2801.11,350.10,346.21,16.29,0000 0000 0000 0000 000000
2015-04-18 04:24:44,0.12,2.81,0.00,23.82,27.02,29.84,4.68,23.72,1015.15,2032.99,2432.36,2581.92,2800.20,349.71,345.99,16.32,0000 0000 0000 0000 000000
2015-04-18 04:29:45,0.13,2.82,0.00,23.83,27.02,29.85,4.79,23.82,1015.15,2032.99,2431.24,2581.03,2799.23,349.84,346.10,16.34,0000 0000 0000 0000 000000
2015-04-18 04:34:46,0.18,2.82,0.00,23.85,27.02,29.86,4.78,23.81,1015.15,2032.99,2429.87,2579.96,2797.99,350.12,346.25,16.37,0000 0000 0000 0000 000000
2015-04-18 04:39:47,0.13,2.83,0.00,23.87,27.02,29.86,4.77,23.85,1015.14,2032.99,2428.64,2579.01,2796.97,350.21,346.49,16.40,0000 0000 0000 0000 000000
2015-04-18 04:44:48,0.17,2.83,0.00,23.87,27.02,29.84,4.69,23.66,1015.04,2032.99,2427.50,2578.01,2795.82,349.74,345.87,16.43,0000 0000 0000 0000 000000
2015-04-18 04:49:49,0.14,2.84,0.00,23.90,27.02,29.86,4.57,23.65,1015.02,2032.99,2426.26,2577.06,2794.76,349.30,345.41,16.46,0000 0000 0000 0000 000000
2015-04-18 04:54:51,0.12,2.84,0.00,23.92,27.03,29.86,4.70,23.59,1014.78,2032.99,2425.16,2576.19,2793.99,349.77,345.69,16.49,0000 0000 0000 0000 000000
2015-04-18 04:59:52,0.11,2.84,0.00,23.92,27.05,29.85,4.65,23.58,1014.68,2032.99,2424.23,2575.71,2793.14,349.34,345.45,16.52,0000 0000 0000 0000 000000
2015-04-18 05:04:53,0.10,2.85,0.00,23.94,27.05,29.85,4.71,23.48,1014.72,2032.99,2423.19,2574.98,2792.35,349.42,345.37,16.55,0000 0000 0000 0000 000000
2015-04-18 05:09:55,0.13,2.85,0.00,23.95,27.05,29.85,4.68,23.48,1014.72,2032.99,2422.11,2574.14,2791.66,349.30,345.27,16.58,0000 0000 0000 0000 000000
2015-04-18 05:14:56,0.15,2.85,0.00,23.97,27.05,29.86,4.79,23.51,1014.79,2032.99,2420.87,2573.25,2790.63,350.31,346.23,16.61,0000 0000 0000 0000 000000
2015-04-18 05:19:57,0.19,2.86,0.00,23.99,27.05,29.86,4.85,23.58,1014.74,2032.98,2419.29,2572.05,2789.28,350.31,346.09,16.64,0000 0000 0000 0000 000000
2015-04-18 05:24:58,0.16,2.86,0.00,24.00,27.06,29.86,4.74,23.59,1014.70,2032.98,2417.84,2570.97,2788.08,350.32,346.08,16.67,0000 0000 0000 0000 000000
2015-04-18 05:30:00,0.22,2.87,0.00,24.02,27.07,29.86,4.77,23.60,1014.68,2032.99,2416.31,2569.77,2786.82,350.32,346.14,16.70,0000 0000 0000 0000 000000
2015-04-18 05:35:01,0.18,2.87,0.00,24.04,27.07,29.87,4.77,23.74,1014.68,2032.98,2414.69,2568.63,2785.59,350.30,346.06,16.73,0000 0000 0000 0000 000000
2015-04-18 05:40:02,0.15,2.88,0.00,24.05,27.07,29.87,4.73,23.63,1014.68,2032.97,2413.31,2567.63,2784.47,349.75,345.53,16.75,0000 0000 0000 0000 000000
2015-04-18 05:45:03,0.17,2.89,0.00,24.05,27.08,29.88,4.70,23.56,1014.70,2032.99,2411.96,2566.55,2783.37,349.80,345.61,16.78,0000 0000 0000 0000 000000
2015-04-18 05:50:05,0.12,2.89,0.00,24.06,27.09,29.88,4.70,23.57,1014.72,2032.97,2410.72,2565.79,2782.31,349.92,345.63,16.81,0000 0000 0000 0000 000000
2015-04-18 05:55:06,0.14,2.89,0.00,24.07,27.10,29.87,4.79,23.51,1014.73,2032.97,2409.50,2564.87,2781.33,350.08,345.77,16.84,0000 0000 0000 0000 000000
2015-04-18 06:00:07,0.15,2.90,0.00,24.08,27.10,29.88,4.69,23.50,1014.86,2032.95,2408.12,2563.85,2780.27,349.44,345.38,16.87,0000 0000 0000 0000 000000
2015-04-18 06:05:09,0.22,2.90,0.00,24.10,27.10,29.88,4.78,23.68,1014.97,2032.93,2406.42,2562.55,2778.90,350.07,345.93,16.90,0000 0000 0000 0000 000000
2015-04-18 06:10:10,0.17,2.91,0.00,24.12,27.10,29.88,4.81,23.73,1015.07,2032.86,2404.89,2561.41,2777.70,350.38,346.15,16.93,0000 0000 0000 0000 000000
2015-04-18 06:15:12,0.25,2.91,0.00,24.12,27.12,29.91,4.66,23.65,1015.14,2032.77,2402.91,2559.99,2776.08,349.56,345.59,16.96,0000 0000 0000 0000 000000
2015-04-18 06:20:13,0.24,2.92,0.00,24.13,27.12,29.90,4.59,23.51,1015.14,2032.68,2400.41,2558.23,2773.95,349.28,345.15,16.99,0000 0000 0000 0000 000000
2015-04-18 06:25:14,0.27,2.93,0.00,24.14,27.12,29.90,4.73,23.63,1015.15,2032.74,2398.29,2556.67,2772.36,349.93,345.78,17.02,0000 0000 0000 0000 000000
2015-04-18 06:30:16,0.23,2.94,0.00,24.16,27.12,29.91,4.71,23.58,1015.15,2032.78,2396.22,2555.19,2770.73,350.04,345.96,17.05,0000 0000 0000 0000 000000
2015-04-18 06:35:17,0.20,2.94,0.00,24.17,27.14,29.91,4.70,23.64,1015.15,2032.74,2394.59,2553.86,2769.38,349.52,345.32,17.08,0000 0000 0000 0000 000000
2015-04-18 06:40:18,0.21,2.95,0.00,24.18,27.15,29.92,4.69,23.68,1015.15,2032.48,2392.90,2552.55,2767.84,350.08,345.89,17.11,0000 0000 0000 0000 000000
2015-04-18 06:45:20,0.21,2.96,0.00,24.19,27.15,29.92,4.75,23.67,1015.15,2032.64,2391.03,2551.21,2766.37,350.60,346.36,17.14,0000 0000 0000 0000 000000
2015-04-18 06:50:21,0.19,2.96,0.00,24.18,27.15,29.92,4.78,23.68,1015.15,2032.70,2389.28,2549.87,2764.93,350.47,346.29,17.17,0000 0000 0000 0000 000000
2015-04-18 06:55:23,0.14,2.97,0.00,24.14,27.17,29.94,4.71,23.71,1015.16,2032.51,2387.91,2548.87,2763.89,350.12,345.90,17.19,0000 0000 0000 0000 000000
2015-04-18 07:00:24,0.22,2.97,0.00,24.09,27.17,29.95,4.82,23.73,1015.16,2032.59,2386.37,2547.68,2762.61,350.46,346.39,17.22,0000 0000 0000 0000 000000
2015-04-18 07:05:25,0.23,2.98,0.00,24.07,27.17,29.97,4.79,23.68,1015.16,2032.62,2384.60,2546.37,2761.18,350.17,346.20,17.25,0000 0000 0000 0000 000000
2015-04-18 07:10:26,0.12,2.99,0.00,24.07,27.17,29.98,4.69,23.63,1015.16,2032.50,2383.08,2545.17,2759.86,349.79,346.13,17.28,0000 0000 0000 0000 000000
2015-04-18 07:15:28,0.08,2.99,0.00,24.08,27.18,29.99,4.65,23.49,1015.17,2032.21,2381.99,2544.29,2758.99,349.88,345.85,17.31,0000 0000 0000 0000 000000
2015-04-18 07:20:29,0.10,2.99,0.00,24.06,27.19,29.99,4.78,23.66,1015.17,2032.22,2381.01,2543.78,2758.14,350.29,346.25,17.34,0000 0000 0000 0000 000000
2015-04-18 07:25:30,0.12,2.99,0.00,24.01,27.20,30.01,4.75,23.63,1015.19,2032.13,2379.88,2542.91,2757.33,350.33,346.21,17.37,0000 0000 0000 0000 000000
2015-04-18 07:30:31,0.18,3.00,0.00,24.00,27.20,30.02,4.63,23.63,1015.17,2032.16,2378.70,2542.02,2756.35,350.01,346.09,17.40,0000 0000 0000 0000 000000
2015-04-18 07:35:33,0.16,3.00,0.00,24.02,27.20,30.03,4.70,23.54,1015.18,2032.10,2377.35,2540.89,2755.13,349.64,345.66,17.43,0000 0000 0000 0000 000000
2015-04-18 07:40:34,0.23,3.01,0.00,24.01,27.20,30.03,4.78,23.63,1015.27,2032.04,2375.63,2539.51,2753.62,350.42,346.34,17.46,0000 0000 0000 0000 000000
2015-04-18 07:45:35,0.18,3.02,0.00,23.97,27.20,30.04,4.71,23.56,1015.30,2032.06,2374.02,2538.30,2752.34,349.26,345.51,17.49,0000 0000 0000 0000 000000
2015-04-18 07:50:37,0.16,3.02,0.00,23.95,27.20,30.04,4.80,23.57,1015.30,2032.09,2372.69,2537.25,2751.25,349.91,346.27,17.52,0000 0000 0000 0000 000000
2015-04-18 07:55:38,0.15,3.03,0.00,23.95,27.21,30.04,4.76,23.63,1015.34,2032.07,2371.49,2536.23,2750.22,350.24,346.36,17.55,0000 0000 0000 0000 000000
2015-04-18 08:00:39,0.12,3.03,0.00,23.94,27.22,30.05,4.59,23.57,1015.50,2032.06,2370.49,2535.52,2749.38,349.17,345.32,17.58,0000 0000 0000 0000 000000
2015-04-18 08:05:40,0.13,3.03,0.00,23.91,27.22,30.06,4.78,23.65,1015.59,2032.06,2369.35,2534.68,2748.46,350.15,346.28,17.60,0000 0000 0000 0000 000000
2015-04-18 08:10:42,0.11,3.04,0.00,23.91,27.22,30.04,4.73,23.61,1015.61,2032.06,2368.30,2533.89,2747.49,350.39,346.46,17.63,0000 0000 0000 0000 000000
2015-04-18 08:15:43,0.13,3.04,0.00,23.92,27.22,30.05,4.60,23.70,1015.63,2032.09,2367.25,2533.04,2746.63,348.98,345.37,17.66,0000 0000 0000 0000 000000
2015-04-18 08:20:44,0.12,3.04,0.00,23.88,27.22,30.06,4.71,23.74,1015.64,2032.02,2366.32,2532.18,2745.78,349.80,346.09,17.69,0000 0000 0000 0000 000000
2015-04-18 08:25:45,0.12,3.05,0.00,23.89,27.22,30.06,4.74,23.60,1015.64,2032.04,2365.31,2531.57,2745.02,350.01,346.58,17.72,0000 0000 0000 0000 000000
2015-04-18 08:30:46,0.10,3.05,0.00,23.89,27.22,30.06,4.81,23.74,1015.64,2032.03,2364.32,2530.90,2744.18,350.44,347.05,17.75,0000 0000 0000 0000 000000
2015-04-18 08:35:47,0.14,3.06,0.00,23.87,27.22,30.07,4.75,23.98,1015.64,2032.03,2363.28,2529.99,2743.49,349.41,345.77,17.78,0000 0000 0000 0000 000000
2015-04-18 08:40:49,0.15,3.06,0.00,23.86,27.22,30.06,4.78,23.82,1015.64,2032.06,2362.07,2529.08,2742.25,349.60,345.96,17.81,0000 0000 0000 0000 000000
2015-04-18 08:45:50,0.13,3.06,0.00,23.85,27.22,30.06,4.75,23.77,1015.65,2032.06,2361.11,2528.40,2741.57,350.02,346.32,17.84,0000 0000 0000 0000 000000
2015-04-18 08:50:52,0.08,3.07,0.00,23.84,27.22,30.06,4.67,23.70,1015.66,2032.06,2360.12,2527.80,2740.79,350.55,346.72,17.87,0000 0000 0000 0000 000000
2015-04-18 08:55:53,0.14,3.07,0.00,23.82,27.22,30.06,4.75,23.81,1015.65,2032.07,2358.97,2526.83,2739.84,350.15,346.51,17.90,0000 0000 0000 0000 000000
2015-04-18 09:00:55,0.13,3.08,0.00,23.82,27.22,30.04,4.70,23.83,1015.65,2032.04,2357.84,2525.97,2738.89,350.12,346.38,17.93,0000 0000 0000 0000 000000
2015-04-18 09:05:56,0.15,3.08,0.00,23.80,27.22,30.04,4.85,23.78,1015.65,2032.05,2356.65,2525.13,2737.99,350.11,346.44,17.96,0000 0000 0000 0000 000000
2015-04-18 09:10:57,0.15,3.08,0.00,23.78,27.21,30.05,4.71,23.70,1015.66,2032.06,2355.56,2524.19,2737.03,349.99,346.42,17.99,0000 0000 0000 0000 000000
2015-04-18 09:15:59,0.14,3.09,0.00,23.76,27.21,30.05,4.75,23.82,1015.74,2032.06,2354.45,2523.50,2736.11,350.25,346.75,18.01,0000 0000 0000 0000 000000
2015-04-18 09:21:01,0.12,3.09,0.00,23.72,27.20,30.06,4.82,23.93,1015.87,2032.07,2353.33,2522.72,2735.31,350.34,346.57,18.04,0000 0000 0000 0000 000000
2015-04-18 09:26:01,0.13,3.10,0.00,23.70,27.20,30.05,4.71,23.77,1016.05,2032.07,2352.23,2521.95,2734.41,349.82,346.56,18.07,0000 0000 0000 0000 000000
2015-04-18 09:31:02,0.13,3.10,0.00,23.69,27.20,30.06,4.75,23.86,1016.06,2032.08,2351.13,2521.07,2733.54,350.07,346.77,18.10,0000 0000 0000 0000 000000
2015-04-18 09:36:04,0.15,3.10,0.00,23.67,27.20,30.06,4.75,24.00,1016.10,2032.06,2349.95,2520.19,2732.66,350.11,346.75,18.13,0000 0000 0000 0000 000000
2015-04-18 09:41:05,0.13,3.11,0.00,23.65,27.20,30.06,4.72,23.93,1016.12,2032.09,2348.89,2519.45,2731.76,349.85,346.63,18.16,0000 0000 0000 0000 000000
2015-04-18 09:46:06,0.12,3.11,0.00,23.62,27.20,30.06,4.77,24.05,1016.12,2032.14,2347.86,2518.69,2730.90,350.03,347.09,18.19,0000 0000 0000 0000 000000
2015-04-18 09:51:07,0.14,3.12,0.00,23.60,27.19,30.04,4.71,23.99,1016.13,2032.15,2346.69,2517.86,2729.95,349.74,346.64,18.22,0000 0000 0000 0000 000000
2015-04-18 09:56:09,0.14,3.12,0.00,23.57,27.17,30.06,4.73,23.93,1016.13,2032.22,2345.60,2517.03,2729.05,350.14,347.09,18.25,0000 0000 0000 0000 000000
2015-04-18 10:01:10,0.16,3.12,0.00,23.53,27.17,30.05,4.76,23.99,1016.14,2032.31,2344.51,2516.13,2728.05,349.83,346.68,18.28,0000 0000 0000 0000 000000
2015-04-18 10:06:11,0.13,3.13,0.00,23.51,27.17,30.06,4.83,23.91,1016.16,2032.18,2343.30,2515.23,2727.01,350.54,347.41,18.31,0000 0000 0000 0000 000000
2015-04-18 10:11:12,0.13,3.13,0.00,23.47,27.17,30.06,4.72,23.94,1016.15,2032.07,2342.13,2514.31,2726.04,349.55,346.68,18.34,0000 0000 0000 0000 000000
2015-04-18 10:16:13,0.18,3.14,0.00,23.45,27.16,30.06,4.69,23.84,1016.16,2032.28,2341.09,2513.62,2725.16,349.46,346.56,18.37,0000 0000 0000 0000 000000
2015-04-18 10:21:15,0.15,3.14,0.00,23.43,27.15,30.06,4.79,23.98,1016.14,2032.43,2340.00,2512.79,2724.26,349.90,347.05,18.40,0000 0000 0000 0000 000000
2015-04-18 10:26:17,0.18,3.15,0.00,23.39,27.15,30.05,4.75,24.02,1016.13,2032.63,2338.92,2512.00,2723.30,349.84,346.76,18.42,0000 0000 0000 0000 000000
2015-04-18 10:31:18,0.15,3.15,0.00,23.35,27.14,30.06,4.78,24.10,1016.13,2032.69,2337.83,2511.15,2722.45,350.10,347.24,18.45,0000 0000 0000 0000 000000
2015-04-18 10:36:20,0.10,3.16,0.00,23.33,27.12,30.02,4.78,24.23,1016.15,2032.56,2336.66,2510.30,2721.51,349.62,346.85,18.48,0000 0000 0000 0000 000000
2015-04-18 10:41:21,0.18,3.16,0.00,23.29,27.12,30.00,4.78,24.05,1016.17,2032.69,2335.69,2509.60,2720.72,350.30,347.47,18.51,0000 0000 0000 0000 000000
2015-04-18 10:46:22,0.13,3.16,0.00,23.27,27.12,30.00,4.82,24.10,1016.17,2032.89,2334.64,2508.90,2719.90,350.80,348.05,18.54,0000 0000 0000 0000 000000
2015-04-18 10:51:23,0.15,3.17,0.00,23.24,27.10,29.97,4.79,24.20,1016.22,2032.93,2333.50,2508.04,2718.86,349.55,346.71,18.57,0000 0000 0000 0000 000000
2015-04-18 10:56:25,0.13,3.17,0.00,23.19,27.10,29.93,4.76,23.88,1016.31,2032.90,2332.38,2507.11,2717.91,349.68,346.82,18.60,0000 0000 0000 0000 000000
2015-04-18 11:01:26,0.15,3.18,0.00,23.17,27.10,29.94,4.78,24.10,1016.44,2032.92,2331.29,2506.30,2717.03,349.96,347.26,18.63,0000 0000 0000 0000 000000
2015-04-18 11:06:27,0.13,3.18,0.00,23.13,27.07,29.92,4.72,23.82,1016.56,2032.94,2330.29,2505.65,2716.13,350.22,348.04,18.66,0000 0000 0000 0000 000000
2015-04-18 11:11:28,0.11,3.19,0.00,23.09,27.07,29.93,4.75,23.89,1016.61,2032.96,2329.30,2504.95,2715.44,349.75,347.40,18.69,0000 0000 0000 0000 000000
2015-04-18 11:16:29,0.13,3.19,0.00,23.31,27.07,29.85,4.76,23.88,1016.61,2032.96,2328.29,2504.14,2714.71,349.84,347.34,18.72,0000 0000 0000 0000 000000
2015-04-18 11:21:30,0.09,3.19,0.00,23.53,27.06,29.90,4.75,23.98,1016.61,2032.98,2327.52,2503.73,2714.01,349.82,346.83,18.75,0000 0000 0000 0000 000000
2015-04-18 11:26:32,0.11,3.20,0.00,23.55,27.06,29.88,4.80,23.99,1016.61,2032.99,2326.57,2503.03,2713.24,350.32,347.21,18.78,0000 0000 0000 0000 000000
2015-04-18 11:31:33,0.14,3.20,0.00,23.51,27.07,29.87,4.70,24.07,1016.55,2032.99,2325.59,2502.24,2712.47,349.72,346.79,18.81,0000 0000 0000 0000 000000
2015-04-18 11:36:34,0.15,3.20,0.00,23.27,27.07,29.90,4.78,24.15,1016.58,2032.99,2324.48,2501.45,2711.56,349.84,347.08,18.84,0000 0000 0000 0000 000000
2015-04-18 11:41:35,0.14,3.21,0.00,23.20,27.07,29.98,4.77,24.12,1016.42,2032.98,2323.33,2500.59,2710.58,350.43,347.56,18.86,0000 0000 0000 0000 000000
2015-04-18 11:46:36,0.11,3.21,0.00,23.13,27.07,29.98,4.85,24.14,1016.40,2032.98,2322.30,2499.81,2709.68,350.58,348.02,18.89,0000 0000 0000 0000 000000
2015-04-18 11:51:38,0.11,3.22,0.00,23.03,27.07,29.95,4.78,24.17,1016.52,2032.99,2321.19,2499.00,2708.80,350.01,347.60,18.92,0000 0000 0000 0000 000000
2015-04-18 11:56:39,0.13,3.22,0.00,23.12,27.05,29.89,4.78,24.08,1016.38,2032.99,2320.30,2498.16,2707.90,350.14,347.55,18.95,0000 0000 0000 0000 000000
2015-04-18 12:01:40,0.14,3.22,0.00,23.41,27.05,29.88,4.77,24.20,1016.29,2032.99,2319.31,2497.42,2707.00,349.78,346.87,18.98,0000 0000 0000 0000 000000
2015-04-18 12:06:41,0.13,3.23,0.00,23.50,27.05,29.88,4.71,24.16,1016.44,2032.99,2318.33,2496.63,2706.04,349.75,346.86,19.01,0000 0000 0000 0000 000000
2015-04-18 12:11:43,0.12,3.23,0.00,23.51,27.06,29.90,4.80,24.38,1016.54,2032.98,2317.21,2495.83,2705.07,350.29,347.35,19.04,0000 0000 0000 0000 000000
2015-04-18 12:16:44,0.12,3.24,0.00,23.43,27.07,29.90,4.75,24.34,1016.53,2032.99,2316.21,2495.02,2704.12,350.03,347.25,19.07,0000 0000 0000 0000 000000
2015-04-18 12:21:46,0.15,3.24,0.00,23.28,27.07,29.91,4.73,24.32,1016.45,2032.99,2315.10,2494.17,2703.17,349.63,347.10,19.10,0000 0000 0000 0000 000000
2015-04-18 12:26:47,0.15,3.24,0.00,23.31,27.07,29.93,4.75,24.45,1016.47,2032.99,2313.98,2493.35,2702.24,350.44,347.65,19.13,0000 0000 0000 0000 000000
2015-04-18 12:31:48,0.17,3.25,0.00,23.25,27.07,29.94,4.76,24.37,1016.51,2032.99,2312.77,2492.42,2701.18,350.14,347.50,19.16,0000 0000 0000 0000 000000
2015-04-18 12:36:49,0.17,3.25,0.00,23.18,27.08,29.95,4.73,24.48,1016.55,2032.97,2311.54,2491.43,2699.93,349.73,347.16,19.19,0000 0000 0000 0000 000000
2015-04-18 12:41:51,0.14,3.26,0.00,23.15,27.09,29.96,4.70,24.30,1016.61,2032.97,2310.41,2490.39,2698.90,349.65,347.17,19.22,0000 0000 0000 0000 000000
2015-04-18 12:46:52,0.12,3.26,0.00,23.16,27.10,29.98,4.79,24.36,1016.62,2032.98,2309.48,2489.66,2698.00,350.73,348.31,19.24,0000 0000 0000 0000 000000
2015-04-18 12:51:53,0.14,3.27,0.00,23.05,27.10,29.97,4.79,24.27,1016.62,2032.98,2308.28,2488.78,2697.00,349.91,347.63,19.27,0000 0000 0000 0000 000000
2015-04-18 12:56:55,0.13,3.27,0.00,23.19,27.10,29.95,4.71,24.22,1016.62,2032.97,2307.13,2487.97,2696.02,349.33,346.74,19.30,0000 0000 0000 0000 000000
2015-04-18 13:01:56,0.17,3.27,0.00,23.21,27.10,29.96,4.76,24.28,1016.62,2032.98,2306.00,2486.99,2694.91,349.60,347.25,19.33,0000 0000 0000 0000 000000